Regional Weather Roundup
Issued by NWS

Home | Current Version | Previous Version | Text Only | Print | Product List | Glossary On
Versions: 1 2 3 4 5 6 7 8 9 10 11 12 13 14 15 16 17 18 19 20 21 22 23 24 25 26 27
000
ASUS44 KJAN 251410
RWRMS

MISSISSIPPI HOURLY WEATHER ROUNDUP
NATIONAL WEATHER SERVICE JACKSON MS
900 AM CDT TUE APR 25 2017

NOTE: "FAIR: INDICATES FEW OR NO CLOUDS BELOW 12,000 FEET WITH NO
SIGNIFICANT WEATHER AND/OR OBSTRUCTIONS TO VISIBILITY.

MSZ001>002-007>008-010>013-018>021-025>028-034>036-251500-
NORTHWEST MISSISSIPPI

CITY           SKY/WX    TMP DP  RH WIND       PRES   REMARKS
CLEVELAND      FAIR      65  55  70 S8        29.78R
GREENWOOD      SUNNY     65  55  70 SW12      29.79S
GREENVILLE     SUNNY     64  55  72 S8        29.78R
OLIVE BRANCH   SUNNY    N/A N/A N/A S9        29.76S
OXFORD         FAIR      63  54  72 S5        29.80S
TUNICA         SUNNY     63  55  77 S8        29.77F
WINONA         FAIR      61  55  83 S7        29.80S
$$

MSZ003>006-009-014>017-022>024-029>033-037>039-251500-
NORTHEAST MISSISSIPPI

CITY           SKY/WX    TMP DP  RH WIND       PRES   REMARKS
COLUMBUS AFB   SUNNY     62  57  83 SW5       29.80F
CORINTH        FAIR      61  55  82 S6        29.79R
STARKVILLE     FAIR      61  55  82 S5        29.82F
TUPELO         SUNNY     60  55  83 SE5       29.80S
$$

MSZ040-058-251500-
CENTRAL MISSISSIPPI

CITY           SKY/WX    TMP DP  RH WIND       PRES   REMARKS
JACKSON INTL   SUNNY     65  56  72 SW5       29.82S
JACKSON HAWKNS SUNNY     64  55  72 S3        29.82S
MADISON        FAIR      63  55  77 SW5       29.81S
MERIDIAN KEY   SUNNY     62  57  83 S3        29.83S
MERIDIAN NAS   SUNNY     64  54  69 VRB3      29.83R
RAYMOND        FAIR      64  57  77 SW5       29.81S HAZE
VICKSBURG VKS  SUNNY     64  55  72 S7        29.78S
$$

MSZ059>079-251500-
SOUTH MISSISSIPPI

CITY           SKY/WX    TMP DP  RH WIND       PRES   REMARKS
HATTIESBURG    SUNNY     67  60  78 CALM      29.84S
LAUREL         FAIR      64  60  87 S5        29.84R
MCCOMB         SUNNY     65  54  67 VRB5      29.83R
NATCHEZ        MOSUNNY   65  56  72 S7        29.82R
PINE BELT      SUNNY     64  57  77 SW7       29.84S
$$

MSZ080>082-251500-
COASTAL MISSISSIPPI

CITY           SKY/WX    TMP DP  RH WIND       PRES   REMARKS
BAY ST LOUIS   SUNNY     66  52  59 W5        29.86R
BILOXI         PTSUNNY   68  61  78 NW6       29.84R
PASCAGOULA     SUNNY     71  60  68 CALM      29.84R
GULFPORT       MOSUNNY   67  59  75 W3        29.84R
$$

LAZ007>009-015>016-023>026-251500-
NORTHEAST LOUISIANA

CITY           SKY/WX    TMP DP  RH WIND       PRES   REMARKS
BASTROP        FAIR      65  57  75 S3        29.77S
TALLULAH/VBURG SUNNY     65  57  75 VRB6      29.81R
VIDALIA        FAIR      65  57  76 S8        29.80S
$$




USA.gov is the U.S. government's official web portal to all federal, state and local government web resources and services.